FW8253 Weather Reports


time (UTC)temp
C
wind
direction
speed
KPH
gust
KPH
rain 1hr
cm
rain 24hr
cm
rain mn
cm
humidity
%
barometer
mb
20260506113332 13 178 0.0 0.0 0.00 0.00 0.00 99 1016.9
20260506112829 13 178 0.0 0.0 0.00 0.00 0.00 99 1016.6
20260506112326 13 178 0.0 0.0 0.00 0.00 0.00 99 1016.8
20260506111823 13 177 0.0 0.0 0.00 0.00 0.00 99 1016.6
20260506111322 13 178 0.0 0.0 0.00 0.00 0.00 99 1016.4
20260506110819 13 178 0.0 0.0 0.00 0.00 0.00 99 1016.4
20260506110315 13 178 0.0 0.0 0.00 0.00 0.00 99 1016.4
20260506105812 13 178 0.0 0.0 0.00 0.00 0.00 99 1016.2
20260506105309 13 178 0.0 0.0 0.00 0.00 0.00 99 1016.2
20260506104806 13 178 0.0 0.0 0.00 0.00 0.00 99 1016.3
20260506104304 13 178 0.0 0.0 0.00 0.00 0.00 99 1016.0
20260506103801 13 178 0.0 0.0 0.00 0.00 0.00 99 1016.0
20260506103259 13 178 0.0 0.0 0.00 0.00 0.00 99 1016.0
20260506102756 13 178 0.0 0.0 0.00 0.00 0.00 99 1016.1
20260506102254 13 178 0.0 0.0 0.00 0.00 0.00 99 1016.0
20260506101751 13 178 0.0 0.0 0.00 0.00 0.00 98 1015.9
20260506101247 13 178 0.0 0.0 0.00 0.00 0.00 98 1015.9
20260506100745 13 178 0.0 0.0 0.00 0.00 0.00 98 1015.8
20260506100243 13 178 0.0 0.0 0.00 0.00 0.00 98 1016.1
20260506095742 13 178 0.0 0.0 0.00 0.00 0.00 98 1015.9
20260506095238 13 178 0.0 0.0 0.00 0.00 0.00 98 1016.0
20260506094734 13 178 0.0 0.0 0.00 0.00 0.00 98 1016.1
20260506094233 13 180 0.0 0.0 0.00 0.00 0.00 98 1016.1
20260506093731 13 182 0.0 0.0 0.00 0.00 0.00 98 1016.2
20260506093228 13 182 0.0 0.0 0.00 0.00 0.00 98 1016.5
20260506092726 13 182 0.0 0.0 0.00 0.00 0.00 98 1016.4
20260506092224 13 182 0.0 0.0 0.00 0.00 0.00 98 1016.3
20260506091721 13 182 0.0 0.0 0.00 0.00 0.00 97 1016.4
20260506091218 13 182 0.0 0.0 0.00 0.00 0.00 97 1016.6
20260506090716 13 182 0.0 0.0 0.00 0.00 0.00 97 1016.5
20260506090212 13 182 0.0 0.0 0.00 0.00 0.00 97 1016.2
20260506085709 13 182 0.0 0.0 0.00 0.00 0.00 97 1016.3
20260506085205 13 182 0.0 0.0 0.00 0.00 0.00 97 1016.6
20260506084703 13 182 0.0 0.0 0.00 0.00 0.00 97 1016.5
20260506084159 13 182 0.0 0.0 0.00 0.00 0.00 97 1016.5
20260506083656 13 182 0.0 0.0 0.00 0.00 0.00 96 1016.6
20260506083154 13 182 0.0 0.0 0.00 0.00 0.00 96 1016.6
20260506082651 13 181 0.0 0.0 0.00 0.00 0.00 96 1016.4
20260506082150 13 181 0.0 0.0 0.00 0.00 0.00 96 1016.5
20260506081649 13 181 0.0 0.0 0.00 0.00 0.00 96 1016.4
20260506081147 13 182 0.0 0.0 0.00 0.00 0.00 96 1016.5
20260506080644 13 182 0.0 0.0 0.00 0.00 0.00 95 1016.6
20260506080140 13 181 0.0 0.0 0.00 0.00 0.00 95 1016.7
20260506073125 14 181 0.0 0.0 0.00 0.00 0.00 94 1016.6
20260506072621 14 181 0.0 0.0 0.00 0.00 0.00 94 1016.7
20260506072119 14 182 0.0 0.0 0.00 0.00 0.00 94 1016.6
20260506071617 14 181 0.0 0.0 0.00 0.00 0.00 94 1016.6
20260506071114 14 181 0.0 0.0 0.00 0.00 0.00 94 1016.7
20260506070611 14 181 0.0 0.0 0.00 0.00 0.00 93 1016.4
20260506070108 14 181 0.0 0.0 0.00 0.00 0.00 93 1016.6
20260506062045 15 182 0.0 0.0 0.00 0.00 0.00 90 1016.6
20260506061541 15 182 0.0 0.0 0.00 0.00 0.00 90 1016.4
20260506061038 15 182 0.0 0.0 0.00 0.00 0.00 90 1016.4
20260506060537 15 182 0.0 0.0 0.00 0.00 0.00 90 1016.7
20260506051006 16 182 0.0 0.0 0.00 0.00 0.00 84 1017.3
20260506050503 16 178 0.0 0.0 0.00 0.00 0.00 84 1017.3
20260506044954 16 182 0.0 0.0 0.00 0.00 0.00 83 1017.2
20260506044452 17 182 0.0 0.0 0.00 0.00 0.00 82 1017.2
20260506043948 17 182 0.0 0.0 0.00 0.00 0.00 82 1017.2
20260506043445 17 182 0.0 0.0 0.00 0.00 0.00 82 1017.3
20260506042943 17 182 0.0 0.0 0.00 0.00 0.00 81 1017.2
20260506042443 17 182 0.0 0.0 0.00 0.00 0.00 81 1017.4
20260506041940 17 182 0.0 0.0 0.00 0.00 0.00 81 1017.7
20260506041438 17 182 0.0 0.0 0.00 0.00 0.00 80 1017.5
20260506040935 17 181 0.0 0.0 0.00 0.00 0.00 79 1017.2
20260506040432 18 176 0.0 0.0 0.00 0.00 0.00 79 1017.2
20260506035928 18 195 0.0 0.0 0.00 0.00 0.00 78 1017.1
20260506035426 18 217 0.0 0.0 0.00 0.00 0.00 78 1017.2
20260506034922 18 203 0.0 0.0 0.00 0.00 0.00 79 1017.4
20260506034420 18 203 0.0 0.0 0.00 0.00 0.00 78 1017.2
20260506033917 18 202 0.0 0.0 0.00 0.00 0.00 78 1017.5
20260506033414 18 217 0.0 0.0 0.00 0.00 0.00 77 1017.3
20260506032911 18 203 0.0 0.0 0.00 0.00 0.00 77 1017.3
20260506032408 18 185 0.0 0.0 0.00 0.00 0.00 77 1017.0
20260506031905 18 208 0.0 0.0 0.00 0.00 0.00 78 1017.3
20260506031402 18 202 0.0 0.0 0.00 0.00 0.00 77 1017.0
20260506030859 19 202 0.0 0.0 0.00 0.00 0.00 77 1017.2
20260506030357 19 196 0.0 0.0 0.00 0.00 0.00 77 1017.2
20260506025854 19 203 0.0 0.0 0.00 0.00 0.00 77 1017.0
20260506025350 19 197 0.0 0.0 0.00 0.00 0.00 77 1016.8
20260506024847 19 226 0.0 0.0 0.00 0.00 0.00 78 1017.0
20260506024344 19 222 0.0 0.0 0.00 0.00 0.00 77 1017.0
20260506023840 20 225 0.0 0.0 0.00 0.00 0.00 77 1016.8
20260506023337 20 224 0.0 0.0 0.00 0.00 0.00 76 1016.8
20260506022834 20 203 0.0 0.0 0.00 0.00 0.00 75 1016.9
20260506022332 20 210 0.0 0.0 0.00 0.00 0.00 75 1016.6
20260506021830 20 166 0.0 0.0 0.00 0.00 0.00 74 1016.7
20260506021326 20 244 0.0 0.0 0.00 0.00 0.00 75 1016.7
20260506020823 20 200 0.0 0.0 0.00 0.00 0.00 75 1016.7
20260506020321 20 149 0.0 0.0 0.00 0.00 0.00 75 1016.8
20260506015818 20 208 0.0 0.0 0.00 0.00 0.00 74 1016.7
20260506015316 21 184 0.0 0.0 0.00 0.00 0.00 73 1016.5
20260506014812 21 204 0.0 0.0 0.00 0.00 0.00 73 1016.5
20260506014309 21 203 0.0 0.0 0.00 0.00 0.00 73 1016.6
20260506013806 21 211 0.0 0.0 0.00 0.00 0.00 73 1016.8
20260506013303 21 178 0.0 0.0 0.00 0.00 0.00 72 1016.5
20260506012759 21 222 0.0 0.0 0.00 0.00 0.00 72 1016.5
20260506012256 21 265 0.0 0.0 0.00 0.00 0.00 71 1016.2
20260506011754 21 180 0.0 0.0 0.00 0.00 0.00 71 1016.0
20260506011250 21 186 0.0 0.0 0.00 0.00 0.00 70 1016.1
20260506010748 21 250 0.0 0.0 0.00 0.00 0.00 69 1016.1
20260506010245 21 187 0.0 0.0 0.00 0.00 0.00 67 1015.9
20260506005743 21 171 0.0 0.0 0.00 0.00 0.00 67 1015.7
20260506005239 20 177 0.0 0.0 0.00 0.00 0.00 67 1015.5
20260506004735 20 200 0.0 0.0 0.00 0.00 0.00 68 1015.6
20260506004233 20 201 0.0 0.0 0.00 0.00 0.00 69 1015.4
20260506003728 21 175 0.0 0.0 0.00 0.00 0.00 68 1015.1
20260506003225 21 175 0.0 0.0 0.00 0.00 0.00 67 1015.1
20260506002721 21 175 0.0 0.0 0.00 0.00 0.00 66 1015.0
20260506002218 21 175 0.0 0.0 0.00 0.00 0.00 64 1015.0
20260506001714 22 175 0.0 0.0 0.00 0.00 0.00 64 1014.9
20260506001211 22 175 0.0 0.0 0.00 0.00 0.00 62 1014.9
20260506000708 22 173 0.0 0.0 0.00 0.00 0.00 61 1014.6
20260506000206 23 173 0.0 0.0 0.00 0.00 0.00 59 1014.9
20260505235703 23 179 0.0 0.0 0.00 0.00 0.00 57 1014.8
20260505235201 23 180 0.0 0.0 0.00 0.00 0.00 57 1014.9
20260505234657 23 180 0.0 0.0 0.00 0.00 0.00 57 1014.8
20260505234154 23 181 0.0 0.0 0.00 0.00 0.00 58 1015.0
20260505233651 24 182 0.0 0.0 0.00 0.00 0.00 55 1015.3
20260505233149 24 179 0.0 0.0 0.00 0.00 0.00 53 1014.7
20260505232646 25 185 0.0 0.0 0.00 0.00 0.00 53 1014.7
20260505232144 25 183 0.0 0.0 0.00 0.00 0.00 53 1014.9
20260505231640 25 217 0.0 0.0 0.00 0.00 0.00 52 1015.0
20260505231139 25 217 0.0 0.0 0.00 0.00 0.00 52 1014.9
20260505230637 25 182 0.0 0.0 0.00 0.00 0.00 50 1015.0
20260505230132 25 186 0.0 0.0 0.00 0.00 0.00 52 1015.0
20260505225629 25 207 0.0 0.0 0.00 0.00 0.00 51 1015.2
20260505225125 25 212 0.0 0.0 0.00 0.00 0.00 51 1015.2
20260505224622 25 168 0.0 0.0 0.00 0.00 0.00 56 1015.4
20260505224120 25 203 0.0 0.0 0.00 0.00 0.00 52 1015.1
20260505223617 26 203 0.0 0.0 0.00 0.00 0.00 51 1015.2
20260505223113 26 203 0.0 0.0 0.00 0.00 0.00 54 1015.2
20260505222609 26 203 0.0 0.0 0.00 0.00 0.00 49 1015.4
20260505222106 26 215 0.0 0.0 0.00 0.00 0.00 50 1015.5
20260505221603 26 215 0.0 0.0 0.00 0.00 0.00 53 1015.4
20260505221059 26 232 0.0 0.0 0.00 0.00 0.00 51 1015.2
20260505220556 26 236 0.0 0.0 0.00 0.00 0.00 55 1015.1
20260505220054 26 213 0.0 0.0 0.00 0.00 0.00 51 1015.2
20260505215552 26 225 0.0 0.0 0.00 0.00 0.00 52 1015.1
20260505215049 26 216 0.0 0.0 0.00 0.00 0.00 54 1015.2
20260505214548 26 228 0.0 0.0 0.00 0.00 0.00 51 1015.2
20260505214044 26 222 0.0 0.0 0.00 0.00 0.00 50 1015.2
20260505213542 26 180 0.0 0.0 0.00 0.00 0.00 49 1015.2
20260505213038 27 232 0.0 0.0 0.00 0.00 0.00 49 1015.2
20260505212534 27 161 0.0 0.0 0.00 0.00 0.00 49 1015.3
20260505212032 27 198 0.0 0.0 0.00 0.00 0.00 46 1015.4
20260505211529 28 228 0.0 0.0 0.00 0.00 0.00 45 1015.1
20260505211025 28 220 0.0 0.0 0.00 0.00 0.00 43 1015.1
20260505210522 29 218 0.0 0.0 0.00 0.00 0.00 45 1015.5
20260505210020 29 225 0.0 0.0 0.00 0.00 0.00 46 1015.3
20260505205518 30 246 0.0 0.0 0.00 0.00 0.00 44 1015.5
20260505205014 28 238 0.0 0.0 0.00 0.00 0.00 44 1015.6
20260505204512 30 232 0.0 0.0 0.00 0.00 0.00 41 1015.4
20260505204009 29 230 0.0 0.0 0.00 0.00 0.00 42 1015.6
20260505203505 29 239 0.0 0.0 0.00 0.00 0.00 40 1015.5
20260505203002 30 234 0.0 0.0 0.00 0.00 0.00 42 1015.4
20260505202459 30 242 0.0 0.0 0.00 0.00 0.00 45 1015.7
20260505201954 30 225 0.0 0.0 0.00 0.00 0.00 42 1015.6
20260505201452 30 203 0.0 0.0 0.00 0.00 0.00 45 1015.7
20260505200949 29 214 0.0 0.0 0.00 0.00 0.00 44 1015.8
20260505200447 30 46 0.0 0.0 0.00 0.00 0.00 43 1016.0
20260505195942 29 247 0.0 0.0 0.00 0.00 0.00 42 1016.1
20260505195440 28 226 0.0 0.0 0.00 0.00 0.00 48 1016.3
20260505194937 28 230 0.0 0.0 0.00 0.00 0.00 44 1016.0
20260505194434 28 345 0.0 0.0 0.00 0.00 0.00 42 1016.4
20260505193934 28 239 0.0 0.0 0.00 0.00 0.00 48 1016.3
20260505193432 28 228 0.0 0.0 0.00 0.00 0.00 45 1016.4
20260505192930 27 227 0.0 0.0 0.00 0.00 0.00 47 1016.2
20260505192428 28 224 0.0 0.0 0.00 0.00 0.00 47 1016.5
20260505191925 30 207 0.0 0.0 0.00 0.00 0.00 44 1016.5
20260505191424 30 231 0.0 0.0 0.00 0.00 0.00 43 1016.7
20260505190920 29 170 0.0 0.0 0.00 0.00 0.00 41 1016.8
20260505190415 28 217 0.0 0.0 0.00 0.00 0.00 49 1017.0
20260505185911 28 296 0.0 0.0 0.00 0.00 0.00 44 1017.0
20260505185409 28 205 0.0 0.0 0.00 0.00 0.00 47 1017.2
20260505184904 28 212 0.0 0.0 0.00 0.00 0.00 45 1017.0
20260505184401 27 242 0.0 0.0 0.00 0.00 0.00 45 1017.3
20260505183858 28 240 0.0 0.0 0.00 0.00 0.00 47 1017.5
20260505183355 29 239 0.0 0.0 0.00 0.00 0.00 40 1017.5
20260505182852 28 279 0.0 0.0 0.00 0.00 0.00 40 1017.7
20260505182349 29 250 0.0 0.0 0.00 0.00 0.00 46 1017.8
20260505181845 30 104 0.0 0.0 0.00 0.00 0.00 45 1017.7
20260505181343 29 255 0.0 0.0 0.00 0.00 0.00 43 1017.7
20260505180839 28 233 0.0 0.0 0.00 0.00 0.00 48 1017.9
20260505180336 28 139 0.0 0.0 0.00 0.00 0.00 43 1018.0
20260505175832 27 260 0.0 0.0 0.00 0.00 0.00 48 1017.8
20260505175329 28 152 0.0 0.0 0.00 0.00 0.00 42 1018.2
20260505174825 28 200 0.0 0.0 0.00 0.00 0.00 46 1018.2
20260505174323 29 225 0.0 0.0 0.00 0.00 0.00 49 1017.9
20260505173819 28 210 0.0 0.0 0.00 0.00 0.00 46 1017.9
20260505173315 29 226 0.0 0.0 0.00 0.00 0.00 49 1018.1
20260505172813 28 275 0.0 0.0 0.00 0.00 0.00 46 1018.1
20260505172310 28 211 0.0 0.0 0.00 0.00 0.00 50 1018.0
20260505171804 27 296 0.0 0.0 0.00 0.00 0.00 45 1018.0
20260505171301 28 282 0.0 0.0 0.00 0.00 0.00 46 1018.0
20260505170758 28 259 0.0 0.0 0.00 0.00 0.00 45 1018.1
20260505170255 28 209 0.0 0.0 0.00 0.00 0.00 49 1018.0
20260505165755 27 257 0.0 0.0 0.00 0.00 0.00 47 1018.1
20260505165251 27 264 0.0 0.0 0.00 0.00 0.00 47 1018.3
20260505164747 26 321 0.0 0.0 0.00 0.00 0.00 52 1018.4
20260505164245 26 231 0.0 0.0 0.00 0.00 0.00 56 1018.4
20260505163743 27 219 0.0 0.0 0.00 0.00 0.00 52 1018.6
20260505163241 27 224 0.0 0.0 0.00 0.00 0.00 54 1018.5
20260505162738 27 260 0.0 0.0 0.00 0.00 0.00 54 1018.5
20260505162235 27 10 0.0 0.0 0.00 0.00 0.00 54 1018.7
20260505161732 27 204 0.0 0.0 0.00 0.00 0.00 57 1018.6
20260505161230 27 158 0.0 0.0 0.00 0.00 0.00 58 1018.6
20260505160727 26 156 0.0 0.0 0.00 0.00 0.00 58 1018.8
20260505160225 25 197 0.0 0.0 0.00 0.00 0.00 60 1018.5
20260505153203 25 286 0.0 0.0 0.00 0.00 0.00 58 1019.3
20260505152700 25 199 0.0 0.0 0.00 0.00 0.00 62 1019.2
20260505152156 25 225 0.0 0.0 0.00 0.00 0.00 61 1019.0
20260505151651 25 184 0.0 0.0 0.00 0.00 0.00 61 1019.2
20260505151149 25 221 0.0 0.0 0.00 0.00 0.00 64 1019.0
20260505150645 25 209 0.0 0.0 0.00 0.00 0.00 62 1019.0
20260505150142 25 158 0.0 0.0 0.00 0.00 0.00 64 1019.3
20260505140611 21 231 0.0 0.0 0.00 0.00 0.00 74 1019.2
20260505140108 21 184 0.0 0.0 0.00 0.00 0.00 74 1019.0
20260505125024 16 164 0.0 0.0 0.00 0.00 0.00 88 1019.4
20260505124521 15 195 0.0 0.0 0.00 0.00 0.00 95 1019.1
20260505124017 14 169 0.0 0.0 0.00 0.00 0.00 97 1018.9
20260505123514 14 223 0.0 0.0 0.00 0.00 0.00 99 1019.0
20260505123010 13 187 0.0 0.0 0.00 0.00 0.00 99 1019.2
20260505122507 13 152 0.0 0.0 0.00 0.00 0.00 99 1019.0
20260505122004 13 181 0.0 0.0 0.00 0.00 0.00 99 1019.1
20260505121501 12 185 0.0 0.0 0.00 0.00 0.00 99 1019.0
20260505120957 12 185 0.0 0.0 0.00 0.00 0.00 99 1018.9
20260505120453 11 185 0.0 0.0 0.00 0.00 0.00 99 1018.8
20260505115952 11 185 0.0 0.0 0.00 0.00 0.00 99 1018.8
20260505115449 11 185 0.0 0.0 0.00 0.00 0.00 99 1018.7
20260505114947 11 185 0.0 0.0 0.00 0.00 0.00 99 1018.7
20260505114443 11 185 0.0 0.0 0.00 0.00 0.00 99 1018.6
20260505113940 10 185 0.0 0.0 0.00 0.00 0.00 99 1018.6
20260505113436 10 185 0.0 0.0 0.00 0.00 0.00 99 1018.5